• Processing (Info)

  • MPEC 2006-W62 : 2006 WE4

    The following Minor Planet Electronic Circular may be linked-to from your own Web pages, but must not otherwise be redistributed electronically.

    A form allowing access to any MPEC is at the bottom of this page.


    Read MPEC 2006-W61 Read MPEC 2006-W63


    M.P.E.C. 2006-W62                                Issued 2006 Nov. 22, 16:44 UT
    
         The Minor Planet Electronic Circulars contain information on unusual
             minor planets and routine data on comets.  They are published
       on behalf of Commission 20 of the International Astronomical Union by the
              Minor Planet Center, Smithsonian Astrophysical Observatory,
                              Cambridge, MA 02138, U.S.A.
    
                 Prepared using the Tamkin Foundation Computer Network
    
                                  MPC@CFA.HARVARD.EDU
              URL http://cfa-www.harvard.edu/iau/mpc.html  ISSN 1523-6714
    
                                       2006 WE4
    
    Observations:
         K06W04E* C2006 11 21.52071 12 14 54.49 +14 31 40.3          20.7 V EW062G96
         K06W04E  C2006 11 21.52246 12 14 54.78 +14 31 35.6          20.6 V EW062G96
         K06W04E  C2006 11 21.52422 12 14 55.03 +14 31 30.5          20.3 V EW062G96
         K06W04E  C2006 11 21.52598 12 14 55.28 +14 31 25.9          20.5 V EW062G96
         K06W04E  C2006 11 21.52926 12 14 55.82 +14 31 17.0          20.0 V EW062G96
         K06W04E  C2006 11 21.53049 12 14 56.04 +14 31 13.5          19.8 V EW062G96
         K06W04E  C2006 11 21.53174 12 14 56.22 +14 31 10.4          20.1 V EW062G96
         K06W04E  C2006 11 21.53297 12 14 56.43 +14 31 06.7          19.9 V EW062G96
         K06W04E  C2006 11 22.41547 12 17 18.65 +13 50 20.0          20.5 R EW062734
         K06W04E  C2006 11 22.42470 12 17 20.22 +13 49 52.8          20.5 R EW062734
         K06W04E  C2006 11 22.43392 12 17 21.67 +13 49 28.9          20.9 R EW062734
         K06W04E  C2006 11 22.49785 12 17 32.06 +13 46 31.3          20.3 V EW062G96
         K06W04E  C2006 11 22.49857 12 17 32.17 +13 46 29.1          20.2 V EW062G96
         K06W04E  C2006 11 22.49928 12 17 32.28 +13 46 27.1          19.8 V EW062G96
         K06W04E  C2006 11 22.49999 12 17 32.38 +13 46 25.2          20.2 V EW062G96
    
    Observer details:
    734 Farpoint Observatory.  Observer G. Hug.  0.7-m reflector + CCD.
    G96 Mt. Lemmon Survey.  Observer A. R. Gibbs.  Measurers E. C. Beshore,
        E. J. Christensen, G. J. Garradd, A. R. Gibbs, A. D. Grauer, R. E. Hill,
        R. A. Kowalski, S. M. Larson, R. H. McNaught.  1.5-m reflector + CCD.
    
    Orbital elements:
    2006 WE4                                                 Earth MOID = 0.1182 AU
    Epoch 2006 Nov. 21.0 TT = JDT 2454060.5                 MPC
    M 255.49661              (2000.0)            P               Q
    n   1.52786255     Peri.  314.32240     +0.07759497     +0.78319871
    a   0.7465860      Node   307.91785     -0.53458664     -0.48961736
    e   0.5798345      Incl.   51.44366     -0.84154390     +0.38324225
    P   0.65           H   18.3           G   0.15
    From 15 observations 2006 Nov. 21-22.  E-assumed.
    
    Ephemeris:
    2006 WE4                 a,e,i = 0.75, 0.58, 51                  q = 0.3137
    Date    TT    R. A. (2000) Decl.     Delta      r     Elong.  Phase     V
    2006 11 21    12 13.52   +14 55.3    0.988    1.025    62.5    58.8    20.4
    2006 11 23    12 18.89   +13 22.9    0.962    1.012    62.5    60.0    20.4
    2006 11 25    12 24.47   +11 45.1    0.936    0.998    62.4    61.3    20.3
    2006 11 27    12 30.29   +10 01.4    0.911    0.983    62.3    62.7    20.3
    2006 11 29    12 36.37   +08 11.3    0.885    0.968    62.0    64.1    20.2
    2006 12 01    12 42.76   +06 14.3    0.861    0.953    61.7    65.7    20.2
    2006 12 03    12 49.50   +04 09.9    0.836    0.937    61.2    67.3    20.1
    2006 12 05    12 56.65   +01 57.6    0.813    0.920    60.6    69.0    20.1
    2006 12 07    13 04.24   -00 22.9    0.791    0.902    59.9    70.8    20.0
    2006 12 09    13 12.36   -02 51.9    0.770    0.884    59.0    72.7    20.0
    2006 12 11    13 21.07   -05 29.5    0.750    0.865    58.0    74.7    20.0
    
    Timothy B. Spahr             (C) Copyright 2006 MPC           M.P.E.C. 2006-W62
    

    Read MPEC 2006-W61 Read MPEC 2006-W63


    MPEC number:

    Enter an MPEC number in one of the following forms:

    • 1997-B01 (the full form)
    • J97B01 (the packed version of the full form)
    • B01 (the abbreviated form)